Meeandah, Australia

5:40 AM AEST on February 21, 2018 (GMT +1000)
Meeandah

Weather History for 94578 - August, 2013

Change the Weather History Date:

Thursday, August 8, 2013

  Actual Average Record
Temperature  
Mean Temperature 60 °F -  
Max Temperature 74 °F 72 °F - ()
Min Temperature 47 °F 51 °F - ()
Degree Days  
Heating Degree Days 4    
Growing Degree Days 10 (Base 50)    
Moisture  
Dew Point 38 °F    
Average Humidity 48    
Maximum Humidity 93    
Minimum Humidity 11    
Precipitation  
Precipitation 0.00 in 0.06 in - ()
Sea Level Pressure  
Sea Level Pressure 29.84 in    
Wind  
Wind Speed 8 mph ()    
Max Wind Speed 26 mph    
Max Gust Speed 33 mph    
Visibility 12.6 miles    
Events      
T = Trace of Precipitation, MM = Missing Value Source: Averaged Metar Reports

Daily Weather History Graph

Daily Weather History Graph

Search for Another Location

Airport or City:

Trip Planner

Search our weather history database for the weather conditions in past years. The results will help you decide how hot, cold, wet, or windy it might be!

Date:

Astronomy

Aug. 08, 2013 Rise Set
Actual Time 6:23 AM AEST 5:22 PM AEST
Civil Twilight 5:59 AM AEST 5:47 PM AEST
Nautical Twilight 5:31 AM AEST 6:14 PM AEST
Astronomical Twilight 5:04 AM AEST 6:42 PM AEST
Moon 6:46 AM AEST (8/8) 6:36 PM AEST (8/8)
Length of Visible Light 11h 47m
Length of Day
10h 58m
New Moon, 1% of the Moon is Illuminated
Aug 8
New Moon
Aug 14
First Quarter
Aug 21
Full
Aug 28
Last Quarter
Sep 5
New

Hourly Weather History & Observations

Time (AEST) Temp. Dew Point Humidity Pressure Visibility Wind Dir Wind Speed Gust Speed Precip Events Conditions
12:00 AM 58 °F 55 °F 86% 29.90 in 19 mi North 5.8 mph - -   Partly Cloudy
12:00 AM 59.0 °F 55.4 °F 88% 29.89 in - North 5.8 mph - N/A   Clear
12:30 AM 57.2 °F 53.6 °F 88% 29.89 in - North 6.9 mph - N/A   Clear
1:00 AM 58 °F 52 °F 76% 29.88 in - NNW 5.8 mph - -  
1:00 AM 59.0 °F 51.8 °F 77% 29.86 in - NNW 5.8 mph - N/A   Clear
1:30 AM 57.2 °F 51.8 °F 82% 29.86 in - North 3.5 mph - N/A   Clear
2:00 AM 55.4 °F 51.8 °F 88% 29.86 in - Calm Calm - N/A   Clear
2:30 AM 55.4 °F 50.0 °F 82% 29.83 in - WSW 3.5 mph - N/A   Clear
3:00 AM 53 °F 48 °F 78% 29.85 in 19 mi West 2.3 mph - -   Partly Cloudy
3:00 AM 53.6 °F 48.2 °F 82% 29.83 in - West 2.3 mph - N/A   Clear
3:30 AM 51.8 °F 48.2 °F 88% 29.83 in - Calm Calm - N/A   Clear
4:00 AM 50 °F 47 °F 84% 29.84 in - Calm Calm - -  
4:00 AM 50.0 °F 46.4 °F 87% 29.83 in - Calm Calm - N/A   Clear
4:30 AM 50.0 °F 46.4 °F 87% 29.83 in - Calm Calm - N/A   Clear
5:00 AM 50.0 °F 46.4 °F 87% 29.83 in - Calm Calm - N/A   Clear
5:30 AM 50.0 °F 46.4 °F 87% 29.83 in - NW 3.5 mph - N/A   Clear
6:00 AM 49 °F 46 °F 85% 29.85 in 19 mi Calm Calm - -   Partly Cloudy
6:00 AM 48.2 °F 46.4 °F 93% 29.83 in - Calm Calm - N/A   Clear
6:30 AM 46.4 °F 44.6 °F 93% 29.83 in - WNW 1.2 mph - N/A   Clear
7:00 AM 50 °F 47 °F 86% 29.86 in - West 3.5 mph - -  
7:00 AM 50.0 °F 46.4 °F 87% 29.86 in - West 3.5 mph - N/A   Clear
7:30 AM 53.6 °F 50.0 °F 88% 29.86 in - SSW 3.5 mph - N/A   Clear
8:00 AM 57.2 °F 51.8 °F 82% 29.86 in - SSW 4.6 mph - N/A   Clear
8:30 AM 60.8 °F 50.0 °F 68% 29.86 in - SSW 3.5 mph - N/A   Clear
9:00 AM 64 °F 49 °F 47% 29.86 in 19 mi West 5.8 mph - -   Haze
9:00 AM 64.4 °F 48.2 °F 56% 29.86 in - West 5.8 mph - N/A   Clear
9:30 AM 69.8 °F 37.4 °F 31% 29.83 in - West 11.5 mph - N/A   Clear
10:00 AM 72 °F 33 °F 14% 29.85 in - West 16.1 mph - -  
10:00 AM 71.6 °F 33.8 °F 25% 29.83 in - West 16.1 mph - N/A   Clear
10:30 AM 73.4 °F 35.6 °F 25% 29.83 in 6.2 mi West 18.4 mph - N/A   Partly Cloudy
11:00 AM 73.4 °F 35.6 °F 25% 29.83 in 6.2 mi West 19.6 mph - N/A   Partly Cloudy
11:30 AM 73.4 °F 37.4 °F 27% 29.80 in 6.2 mi West 18.4 mph - N/A   Partly Cloudy
12:00 PM 74 °F 41 °F 19% 29.81 in 19 mi West 17.3 mph - -   Partly Cloudy
12:00 PM 73.4 °F 41.0 °F 31% 29.80 in 6.2 mi West 17.3 mph - N/A   Partly Cloudy
12:30 PM 73.4 °F 42.8 °F 33% 29.77 in 6.2 mi West 20.7 mph - N/A   Partly Cloudy
1:00 PM 72 °F 40 °F 20% 29.79 in - West 21.9 mph - -  
1:00 PM 73.4 °F 39.2 °F 29% 29.77 in 6.2 mi West 21.9 mph - N/A   Partly Cloudy
1:30 PM 73.4 °F 39.2 °F 29% 29.77 in 6.2 mi West 18.4 mph 29.9 mph N/A   Partly Cloudy
2:00 PM 73.4 °F 32.0 °F 22% 29.74 in 6.2 mi West 19.6 mph - N/A   Partly Cloudy
2:30 PM 71.6 °F 26.6 °F 19% 29.74 in - West 20.7 mph - N/A   Clear
3:00 PM 71 °F 28 °F 11% 29.78 in 19 mi West 20.7 mph - -   Partly Cloudy
3:00 PM 71.6 °F 28.4 °F 20% 29.77 in - West 20.7 mph - N/A   Clear
3:35 PM 68.0 °F 30.2 °F 24% 29.77 in - WSW 18.4 mph 29.9 mph N/A   Clear
4:00 PM 68.0 °F 21.2 °F 17% 29.80 in - WSW 26.5 mph - N/A   Clear
4:30 PM 66.2 °F 23.0 °F 19% 29.80 in - West 24.2 mph - N/A   Clear
5:00 PM 64.4 °F 23.0 °F 21% 29.80 in - West 21.9 mph - N/A   Clear
5:30 PM 64.4 °F 21.2 °F 19% 29.83 in - West 21.9 mph - N/A   Clear
6:00 PM 63 °F 23 °F 12% 29.85 in 19 mi West 21.9 mph - -   Partly Cloudy
6:00 PM 62.6 °F 23.0 °F 22% 29.83 in - West 21.9 mph 33.4 mph N/A   Clear
6:30 PM 62.6 °F 24.8 °F 24% 29.86 in - West 20.7 mph - N/A   Clear
7:00 PM 61 °F 26 °F 15% 29.88 in - WSW 17.3 mph - -  
7:00 PM 60.8 °F 26.6 °F 27% 29.86 in - WSW 17.3 mph - N/A   Clear
7:30 PM 60.8 °F 24.8 °F 25% 29.89 in - WSW 16.1 mph - N/A   Clear
8:00 PM 59.0 °F 26.6 °F 29% 29.92 in - WSW 15.0 mph - N/A   Clear
8:30 PM 59.0 °F 26.6 °F 29% 29.89 in - WSW 16.1 mph - N/A   Clear
9:00 PM 57 °F 29 °F 22% 29.92 in 19 mi WSW 9.2 mph - -   Partly Cloudy
9:00 PM 57.2 °F 28.4 °F 33% 29.92 in - WSW 9.2 mph - N/A   Clear
9:30 PM 57.2 °F 30.2 °F 36% 29.92 in - West 9.2 mph - N/A   Clear
10:00 PM 56 °F 29 °F 24% 29.92 in - WSW 12.7 mph - -  
10:00 PM 57.2 °F 28.4 °F 33% 29.92 in - WSW 12.7 mph - N/A   Clear
10:30 PM 55.4 °F 28.4 °F 36% 29.92 in - WSW 13.8 mph - N/A   Clear
11:00 PM 55.4 °F 28.4 °F 36% 29.92 in - WSW 16.1 mph - N/A   Clear
11:30 PM 55.4 °F 30.2 °F 38% 29.92 in - WSW 15.0 mph - N/A   Clear